Regional Weather Roundup
Issued by NWS Boston, MA

Home | Current Version | Previous Version | Text Only | Print | Product List | Glossary On
Versions: 1 2 3 4 5 6 7 8 9 10 11 12 13 14 15 16 17 18 19 20 21 22 23 24 25 26 27 28 29 30 31 32 33 34 35 36 37 38 39 40 41 42 43 44 45 46 47 48 49 50
000
ASUS41 KBOX 011610
RWRBOX

REGIONAL WEATHER ROUNDUP
NATIONAL WEATHER SERVICE TAUNTON MA
1200 PM EDT SAT AUG 01 2015

NOTE:  "FAIR" INDICATES FEW OR NO CLOUDS BELOW 12,000 FEET WITH NO
SIGNIFICANT WEATHER AND/OR OBSTRUCTIONS TO VISIBILITY.  THE FOLLOWING
OBSERVATION LOCATIONS DO NOT REPORT PRESENT WEATHER...PROVINCETOWN...
SMITHFIELD...BLOCK ISLAND...KEENE...AND OXFORD.

MAZALL-011700-
EASTERN MASSACHUSETTS

CITY           SKY/WX    TMP DP  RH WIND       PRES   REMARKS
BOSTON         PTSUNNY   86  59  39 SW10      29.74F
BEVERLY        PTSUNNY   83  60  45 W8        29.73F
LAWRENCE       PTSUNNY   80  60  50 W9        29.76S
BEDFORD        MOSUNNY   84  61  45 W6        29.74S
BLUE HILL        N/A     85  59  41 W13G20    29.76F
NORWOOD        MOSUNNY   86  60  41 SW12G17   29.74F
MARSHFIELD     MOSUNNY   88  63  42 W8G16     29.76S
PLYMOUTH       SUNNY     88  62  41 SW14G20   29.76S
TAUNTON        SUNNY     87  64  46 SW10      29.75S
NEW BEDFORD    SUNNY     87  64  46 W10       29.75F
$$

MAZALL-011700-
CAPE COD AND THE ISLANDS

CITY           SKY/WX    TMP DP  RH WIND       PRES   REMARKS
FALMOUTH       SUNNY     84  66  54 SW13G18   29.77F
HYANNIS        SUNNY     86  62  44 SW17      29.76F
CHATHAM        SUNNY     82  70  66 MISG      29.79F
PROVINCETOWN   MOSUNNY   82  64  54 SW10      29.76S
NANTUCKET      SUNNY     78  69  73 SW15      29.80S
MARTHAS VNYRD  SUNNY     82  68  62 SW13      29.79S
$$

MAZALL-011700-
CENTRAL AND WESTERN MASSACHUSETTS

CITY           SKY/WX    TMP DP  RH WIND       PRES   REMARKS
WORCESTER      PTSUNNY   79  60  52 SW9       29.80R
FITCHBURG      MOSUNNY   79  62  56 SW5       29.77S
ORANGE         PTSUNNY   79  59  50 W9        29.77S
SPRINGFIELD    SUNNY     82  63  53 W12       29.76F
WESTFIELD      SUNNY     83  59  44 W8        29.77S
NORTH ADAMS    PTSUNNY   78  60  53 VRB6      29.79S
PITTSFIELD     PTSUNNY   75  62  64 NW8       29.81S
$$

RIZALL-011700-
RHODE ISLAND

CITY           SKY/WX    TMP DP  RH WIND       PRES   REMARKS
PROVIDENCE     PTSUNNY   87  61  41 SW10G17   29.76F
NEWPORT        SUNNY     81  68  64 S7        29.77F
BLOCK ISLAND     N/A     82  68  61 SW12      29.80S
SMITHFIELD     SUNNY     82  64  54 W8        29.77F
WESTERLY       SUNNY     81  65  58 SW8       29.79R
$$

CTZALL-011700-
CONNECTICUT

CITY           SKY/WX    TMP DP  RH WIND       PRES   REMARKS
BRADLEY INTL   MOSUNNY   85  61  44 W7        29.77R
HARTFORD       MOSUNNY   84  62  47 VRB5      29.76S
BRIDGEPORT     PTSUNNY   82  66  58 SW14      29.79R
DANBURY        SUNNY     81  61  50 VRB6      29.81S
GROTON         SUNNY     80  67  64 SW14      29.77S
NEW HAVEN      CLOUDY    78  66  66 SW12      29.78S
CHESTER        NOT AVBL
MERIDEN        MOSUNNY   85  60  42 W9        29.78R
WILLIMANTIC    MOSUNNY   84  62  47 W12       29.77S
OXFORD         MOSUNNY   81  63  54 W5        29.84R
$$

MEZ002-015-021-024-NHZ003-005-008-011-012-014-VTZ005-008-011700-
NORTHERN NEW ENGLAND

CITY           SKY/WX    TMP DP  RH WIND       PRES   REMARKS
PORTLAND ME    PTSUNNY   79  59  50 W10G18    29.71F
BANGOR ME      PTSUNNY   82  61  48 S9        29.68F
CONCORD NH     MOSUNNY   81  60  48 S6        29.74F
MANCHESTER NH  PTSUNNY   79  62  56 W8        29.74S
NASHUA NH      PTSUNNY   80  64  58 VRB5      29.75S
PORTSMOUTH NH  PTSUNNY   79  63  58 SW7       29.72S
JAFFREY NH     SUNNY     78  57  48 W9        29.79S
KEENE NH       MOSUNNY   79  57  47 W8        29.77R
BURLINGTON VT  MOSUNNY   81  57  43 NW10      29.74R THUNDER
MT. WASHINGTON FOG       48  48 100 W30         N/A  VSB 0
$$

NYZ052-076-011700-
EASTERN NEW YORK

CITY           SKY/WX    TMP DP  RH WIND       PRES   REMARKS
ALBANY         MOSUNNY   81  60  48 NW10      29.79S
NEW YORK CITY  PTSUNNY   85  59  41 W13       29.80S
$$

ANZALL-011700-
MARINE OBSERVATIONS

STATION/POSITION TIME  TEMP    WIND        PRES    VSBY  WAVE
                       AIR SEA DIR/SP/G                  HT/PER
                 (UTC) (F)     (DEG/KT/KT) (MB)    (MI)  (FT/S)
BOSTON BUOY      1550   77 72  240/  4/  4 1007.4F         1/ 7
BUZZARDS BAY     1500          230/ 14/ 15 1009.2R
NANTUCKET SOUND  1550   74 75  220/ 16/ 19 1008.1F         1/ 3
MASS BAY-STELLWA 1504   72 68  220/  6/  8   N/A    1 7/8  2/ 8
ISLE OF SHOALS   1500   76     250/ 10/ 11 1006.3S
S OF BLOCK IS    1508      74                N/A           5/10
$$

......................KEY.........................
  SKY/WX - SKY CONDITION/PRESENT WEATHER
  TMP    - TEMPERATURE IN FAHRENHEIT
  DWPT   - DEWPOINT IN FAHRENHEIT
  RH     - RELATIVE HUMIDITY IN PERCENT
  WIND   - DIRECTION AND SPEED IN MPH
  PRES   - MEAN SEA LEVEL PRESSURE IN INCHES OF HG
  WCI    - WIND CHILL INDEX
  VSB    - VISIBILITY IN MILES
  HX     - HEAT INDEX
  TC     - TEMPERATURE IN CELSIUS
  VRB    - VARIABLE WIND DIRECTION
  N/A    - NOT AVAILABLE



USA.gov is the U.S. government's official web portal to all federal, state and local government web resources and services.